Regional Weather Roundup
Issued by NWS

Home | Current Version | Previous Version | Graphics & Text | Print | Product List | Glossary On
Versions: 1 2 3 4 5 6 7 8 9 10 11 12 13 14 15 16 17 18 19 20 21 22 23 24 25 26 27 28 29 30 31 32 33 34 35 36 37 38 39 40 41 42 43 44 45 46 47 48 49 50
000
ASUS43 KOAX 280110
RWRNE

WEATHER ROUNDUP FOR NEBRASKA
NATIONAL WEATHER SERVICE OMAHA NE
700 PM CST SAT DEC 27 2014

NOTES: SATELLITE DATA IS BEING USED TO AUGMENT CLOUD COVER ABOVE
       12000 FEET.
       "FAIR" INDICATES FEW OR NO CLOUDS BELOW 12,000 FEET WITH NO
       SIGNIFICANT WEATHER AND/OR OBSTRUCTIONS TO VISIBILITY.

  * THESE STATIONS DO NOT REPORT WEATHER SUCH AS RAIN...SNOW OR FOG.

NEZ001>004-019>022-054>056-280200-
NEBRASKA PANHANDLE

CITY           SKY/WX    TMP DP  RH WIND       PRES   REMARKS
SCOTTSBLUFF    PTCLDY    12   7  80 NW3       30.09S
ALLIANCE       PTCLDY     2  -2  83 W8        30.08R WCI -12
CHADRON        PTCLDY     8   2  76 SW8       30.08R WCI  -4
KIMBALL        PTCLDY     7   1  75 W10       30.06S WCI  -7
SIDNEY         PTCLDY     8   1  73 W10       30.10S WCI  -6
$$

NEZ057>060-069>072-079>082-280200-
SOUTHWEST NEBRASKA

CITY           SKY/WX    TMP DP  RH WIND       PRES   REMARKS
NORTH PLATTE   CLEAR      9   6  88 CALM      30.16S
IMPERIAL       CLEAR     13   7  77 W7        30.16S WCI   3
LEXINGTON      CLEAR     15  12  86 SW5       30.18S WCI   8
MCCOOK         CLEAR     16  11  80 SW6       30.20R WCI   7
OGALLALA       PTCLDY     9   5  85 CALM      30.14S
$$

NEZ005>010-023>029-035>040-094-280200-
NORTH CENTRAL NEBRASKA

CITY           SKY/WX    TMP DP  RH WIND       PRES   REMARKS
VALENTINE      PTCLDY    13   9  84 SW6       30.09S WCI   4
AINSWORTH      CLEAR     13   9  81 SW9       30.10S WCI   1
BROKEN BOW     CLEAR     14  10  84 CALM      30.15S
O`NEILL        CLEAR      9   8  95 SW6       30.14F WCI   0
ORD            CLEAR     14   9  80 CALM      30.16F
THEDFORD       CLEAR     20  15  80 SW9       30.11F WCI   9
$$

NEZ041-046>049-061>064-073>077-083>087-280200-
SOUTH CENTRAL NEBRASKA

CITY           SKY/WX    TMP DP  RH WIND       PRES   REMARKS
GRAND ISLAND   CLEAR     15  10  80 SW9       30.22S WCI   3
AURORA         CLEAR     16  13  89 SW6       30.22S WCI   7
HASTINGS       CLEAR     18  13  80 SW5       30.21R WCI  11
HEBRON         CLEAR     20  14  77 SW5       30.26S WCI  13
HOLDREGE       CLEAR     19  14  80 W7        30.20S WCI  10
KEARNEY *      CLEAR     16  12  86 S5        30.20S WCI   9
YORK           CLEAR     16  10  79 W7        30.23S WCI   6
$$

NEZ011>018-030>034-042>045-280200-
NORTHEAST NEBRASKA

CITY           SKY/WX    TMP DP  RH WIND       PRES   REMARKS
NORFOLK        CLEAR     11   8  88 SW7       30.19S WCI   0
ALBION         CLEAR     15  10  80 CALM      30.19F
BLAIR          CLEAR     20  15  78 W5        30.23R WCI  14
COLUMBUS *     CLEAR     19  10  68 SW3       30.23S
FREMONT        CLEAR     18  14  86 CALM      30.24R
TEKAMAH        CLEAR     15  10  80 SW5       30.24F WCI   8
WAYNE          CLEAR     10   7  88 S5        30.21S WCI   1
$$

NEZ050>053-065>068-078-088>093-280200-
SOUTHEAST NEBRASKA

CITY           SKY/WX    TMP DP  RH WIND       PRES   REMARKS
LINCOLN        CLEAR     20  16  84 CALM      30.26F
OMAHA EPPLEY   CLEAR     22  14  71 CALM      30.26S
BEATRICE       FAIR      20  16  82 W3        30.25S
FALLS CITY     CLEAR     25  19  78 W7        30.26S WCI  17
NEBRASKA CITY  CLEAR     22  16  76 W5        30.25S WCI  16
PLATTSMOUTH    CLEAR     20  14  78 W5        30.24S WCI  14
$$

NEZ044-045-051>053-067-280200-
OMAHA AREA

CITY           SKY/WX    TMP DP  RH WIND       PRES   REMARKS
OMAHA EPPLEY   CLEAR     22  14  71 CALM      30.26S
BLAIR          CLEAR     20  15  78 W5        30.23R WCI  14
FREMONT        CLEAR     18  14  86 CALM      30.24R
MILLARD        CLEAR     22  16  79 CALM      30.25S
OFFUTT AFB     CLEAR     19  13  80 W3        30.24F
PLATTSMOUTH    CLEAR     20  14  78 W5        30.24S WCI  14
WAHOO          FAIR      18  14  82 CALM      30.24S
$$


USA.gov is the U.S. government's official web portal to all federal, state and local government web resources and services.